Regional Weather Roundup
Issued by NWS Spokane, WA

Home | Current Version | Previous Version | Text Only | Print | Product List | Glossary On
Versions: 1 2 3 4 5 6 7 8 9 10 11 12 13 14 15 16 17 18 19 20 21 22 23 24 25 26 27 28 29 30 31 32 33 34 35 36 37 38 39 40 41 42 43 44 45 46 47 48 49 50
000
NZUS01 KOTX 281010
RWROTX
EASTERN WASHINGTON/NORTHERN IDAHO ROUNDUP
NATIONAL WEATHER SERVICE, SPOKANE WA
300 AM PDT TUE APR 28 2015

Note: "fair" indicated few or no clouds below 12,000 feet with no
significant weather and/or obstructions to visibility.

...NORTHEAST WASHINGTON AND NORTHERN IDAHO PANHANDLE...

CITY           SKY/WX    TMP DP  RH WIND       PRES   REMARKS
SPOKANE INTL   MOCLDY    51  35  54 E10       30.11F
SPOKANE DOWNTO CLEAR     43  38  82 CALM      30.12F
COEUR D ALENE  CLEAR     43  34  70 NE8       30.15F
DEER PARK      CLEAR     39  36  89 CALM      30.12F
SANDPOINT      CLEAR     37  36  93 CALM      30.16F
BONNERS FERRY  FAIR      41  36  81 CALM      30.18F

...SOUTHEAST WASHINGTON AND SOUTHERN IDAHO PANHANDLE...

CITY           SKY/WX    TMP DP  RH WIND       PRES   REMARKS
WALLA WALLA    CLEAR     52  38  58 CALM      30.03S
PULLMAN/MOSCOW CLEAR     50  33  52 E15       30.11F
LEWISTON       CLEAR     53  36  52 E9        30.09F
LOWELL           N/A     41  38  89 N5        30.22S

...COLUMBIA BASIN...

CITY           SKY/WX    TMP DP  RH WIND       PRES   REMARKS
EPHRATA        CLEAR     50  35  56 N7        30.06F
MOSES LAKE     PTCLDY    45  35  68 N8        30.06F
TRI CITIES     CLEAR     44  39  82 NW3       30.04S
HERMISTON      CLEAR     46  36  68 CALM      30.01S
PENDLETON      CLEAR     51  33  50 CALM      30.02S

...EAST SLOPES CASCADES...

CITY           SKY/WX    TMP DP  RH WIND       PRES   REMARKS
THE DALLES     CLEAR     49  41  74 CALM      30.02S
YAKIMA         CLEAR     47  39  74 W7        30.06F
ELLENSBURG     CLEAR     45  37  73 CALM      30.07F
WENATCHEE      CLEAR     54  39  57 CALM      30.08S
OMAK           PTCLDY    44  37  76 CALM      30.10S

...SOUTHERN BRITISH COLUMBIA...

CITY           SKY/WX    TMP DP  RH WIND       PRES   REMARKS
PENTICTON      PTCLDY    45  37  76 CALM      30.07F
CRANBROOK      MOCLDY    45  32  61 W6        30.20F

...WESTERN MONTANA...

CITY           SKY/WX    TMP DP  RH WIND       PRES   REMARKS
MISSOULA       PTCLDY    38  34  85 CALM      30.25S

...NEIGHBORING CITIES...

CITY           SKY/WX    TMP DP  RH WIND       PRES   REMARKS
SEATTLE        MOCLDY    59  52  77 S8        29.98R
CALGARY        MOCLDY    43  30  61 S7        30.08F



USA.gov is the U.S. government's official web portal to all federal, state and local government web resources and services.